Check out our new BloomSky Weather System.

Active alerts


No alerts


Thunder radar  blitzortung!


Rain radar more information rain snow radar


Visit our other weather sites:

Template documentation
and downloads

And another site



Weather Underground History page Text

Daily Summary for April 11, 2017 Units:  Metric    English   Both
« Previous Day
Next Day »
Daily Weekly Monthly Yearly Custom
  High: Low: Average:
Temperature: 23.4 °C 16.1 °C 19.7 °C
Dew Point: 21.4 °C 15.8 °C 18.6 °C
Humidity: 98 % 86 % 93 %
Wind Speed: 20.9 km/h 0 km/h 3.5 km/h
Wind Gust: 37 km/h - -
Wind:- - SE
Pressure: 1022.9 hPa 1017.2 hPa -
Precipitation: 30.23 mm    
Historical Graphs
 
 
Tabular Data for April 11, 2017
Time Temperature Dew Point Pressure Wind Wind Speed Wind Gust Humidity Rainfall Rate (Hourly)
00:00 22.6 °C 20.3 °C 1018.2 hPa ESE 9.7 km/h 19.3 km/h 87 % 0 mm
00:05 22.6 °C 20.3 °C 1018.2 hPa SE 4.8 km/h 19.3 km/h 87 % 0 mm
00:10 22.6 °C 20.3 °C 1018.2 hPa SSE 8 km/h 19.3 km/h 87 % 0 mm
00:15 22.6 °C 20.3 °C 1018.2 hPa SE 9.7 km/h 17.7 km/h 87 % 0 mm
00:20 22.6 °C 20.3 °C 1018.5 hPa ESE 11.3 km/h 19.3 km/h 87 % 0 mm
00:30 22.6 °C 20.3 °C 1018.8 hPa SSE 4.8 km/h 19.3 km/h 87 % 0 mm
00:35 22.6 °C 20.3 °C 1018.8 hPa ESE 8 km/h 14.5 km/h 87 % 0 mm
00:40 22.6 °C 20.3 °C 1018.8 hPa SE 8 km/h 12.9 km/h 87 % 0 mm
00:45 22.5 °C 20.2 °C 1018.8 hPa ESE 9.7 km/h 12.9 km/h 87 % 0 mm
00:50 22.5 °C 20.2 °C 1018.8 hPa East 4.8 km/h 14.5 km/h 87 % 0 mm
00:55 22.5 °C 20.2 °C 1018.8 hPa SE 8 km/h 14.5 km/h 87 % 0 mm
01:00 22.5 °C 20.2 °C 1018.5 hPa SE 3.2 km/h 14.5 km/h 87 % 0 mm
01:05 22.4 °C 20.1 °C 1018.8 hPa ESE 6.4 km/h 11.3 km/h 87 % 0 mm
01:10 22.4 °C 20.1 °C 1018.8 hPa SE 8 km/h 11.3 km/h 87 % 0 mm
01:15 22.4 °C 20.1 °C 1018.5 hPa ESE 8 km/h 14.5 km/h 87 % 0 mm
01:20 22.3 °C 20 °C 1018.2 hPa SSE 4.8 km/h 14.5 km/h 87 % 0 mm
01:25 22.3 °C 20 °C 1018.2 hPa ESE 6.4 km/h 14.5 km/h 87 % 0 mm
01:30 22.3 °C 20 °C 1018.2 hPa ESE 9.7 km/h 14.5 km/h 87 % 0 mm
01:35 22.3 °C 20 °C 1017.8 hPa ESE 6.4 km/h 12.9 km/h 87 % 0 mm
01:41 22.2 °C 19.9 °C 1017.8 hPa ESE 14.5 km/h 14.5 km/h 87 % 0 mm
01:46 22.2 °C 19.9 °C 1017.8 hPa SSE 9.7 km/h 14.5 km/h 87 % 0 mm
01:51 22.2 °C 19.9 °C 1017.8 hPa East 11.3 km/h 14.5 km/h 87 % 0 mm
01:56 22.2 °C 19.9 °C 1017.5 hPa East 11.3 km/h 16.1 km/h 87 % 0 mm
02:01 22.2 °C 19.7 °C 1017.5 hPa SE 11.3 km/h 17.7 km/h 86 % 0 mm
02:06 22.2 °C 19.7 °C 1017.5 hPa East 11.3 km/h 17.7 km/h 86 % 0 mm
02:11 22.1 °C 19.6 °C 1017.5 hPa SE 6.4 km/h 17.7 km/h 86 % 0 mm
02:16 22.1 °C 19.6 °C 1017.8 hPa ESE 8 km/h 16.1 km/h 86 % 0 mm
02:21 22.1 °C 19.6 °C 1017.8 hPa South 3.2 km/h 17.7 km/h 86 % 0 mm
02:26 22.1 °C 19.6 °C 1017.8 hPa SSE 3.2 km/h 17.7 km/h 86 % 0 mm
02:31 22.1 °C 19.6 °C 1017.8 hPa SSE 6.4 km/h 17.7 km/h 86 % 0 mm
02:36 22.1 °C 19.6 °C 1017.8 hPa SE 6.4 km/h 16.1 km/h 86 % 0 mm
02:41 22 °C 19.5 °C 1017.8 hPa SE 8 km/h 12.9 km/h 86 % 0 mm
02:46 22 °C 19.7 °C 1017.8 hPa SSW 6.4 km/h 12.9 km/h 87 % 0 mm
02:51 22 °C 19.7 °C 1017.8 hPa SE 6.4 km/h 12.9 km/h 87 % 0 mm
02:56 22.1 °C 19.8 °C 1017.8 hPa ESE 6.4 km/h 12.9 km/h 87 % 0 mm
03:01 22.1 °C 19.8 °C 1018.2 hPa ESE 6.4 km/h 12.9 km/h 87 % 0 mm
03:06 22.1 °C 19.8 °C 1018.2 hPa SSE 3.2 km/h 9.7 km/h 87 % 0 mm
03:11 22.1 °C 19.8 °C 1018.2 hPa SE 6.4 km/h 9.7 km/h 87 % 0 mm
03:16 22.1 °C 20 °C 1018.2 hPa South 3.2 km/h 11.3 km/h 88 % 0 mm
03:21 22.1 °C 19.8 °C 1017.8 hPa SE 6.4 km/h 11.3 km/h 87 % 0 mm
03:26 22.1 °C 20 °C 1017.8 hPa SE 3.2 km/h 11.3 km/h 88 % 0 mm
03:31 22 °C 19.9 °C 1017.8 hPa SSE 1.6 km/h 11.3 km/h 88 % 0 mm
03:36 22 °C 19.9 °C 1017.8 hPa ESE 9.7 km/h 11.3 km/h 88 % 0 mm
03:41 22.1 °C 19.8 °C 1017.8 hPa East 9.7 km/h 14.5 km/h 87 % 0 mm
03:46 22.1 °C 19.8 °C 1017.8 hPa SE 4.8 km/h 14.5 km/h 87 % 0 mm
03:51 22 °C 19.7 °C 1017.8 hPa SE 9.7 km/h 14.5 km/h 87 % 0 mm
03:56 22 °C 19.7 °C 1017.8 hPa SSE 6.4 km/h 12.9 km/h 87 % 0 mm
04:01 21.9 °C 19.6 °C 1017.8 hPa South 6.4 km/h 12.9 km/h 87 % 0 mm
04:06 21.9 °C 19.8 °C 1017.5 hPa ESE 3.2 km/h 12.9 km/h 88 % 0 mm
04:11 21.8 °C 19.7 °C 1017.5 hPa ESE 8 km/h 12.9 km/h 88 % 0 mm
04:16 21.8 °C 19.7 °C 1017.5 hPa ESE 4.8 km/h 12.9 km/h 88 % 0 mm
04:21 21.7 °C 19.6 °C 1017.5 hPa SE 1.6 km/h 12.9 km/h 88 % 0 mm
04:26 21.6 °C 19.7 °C 1017.5 hPa ENE 3.2 km/h 12.9 km/h 89 % 0 mm
04:31 21.6 °C 19.7 °C 1017.5 hPa SE 1.6 km/h 11.3 km/h 89 % 0 mm
04:36 21.4 °C 19.5 °C 1017.2 hPa Calm   4.8 km/h 89 % 0 mm
04:41 21.4 °C 19.7 °C 1017.5 hPa ESE 3.2 km/h 4.8 km/h 90 % 0 mm
04:46 21.4 °C 19.7 °C 1017.5 hPa SSE 3.2 km/h 6.4 km/h 90 % 0 mm
04:51 21.3 °C 19.6 °C 1017.5 hPa ESE 6.4 km/h 8 km/h 90 % 0 mm
04:56 21.3 °C 19.6 °C 1017.5 hPa East 4.8 km/h 8 km/h 90 % 0 mm
05:01 21.3 °C 19.8 °C 1017.5 hPa Calm   9.7 km/h 91 % 0 mm
05:06 21.2 °C 19.7 °C 1017.8 hPa East 1.6 km/h 9.7 km/h 91 % 0 mm
05:11 21.2 °C 19.7 °C 1017.8 hPa East 3.2 km/h 9.7 km/h 91 % 0 mm
05:16 21.2 °C 19.7 °C 1017.8 hPa Calm   4.8 km/h 91 % 0 mm
05:21 21.1 °C 19.6 °C 1017.5 hPa East 1.6 km/h 6.4 km/h 91 % 0 mm
05:26 21.1 °C 19.6 °C 1017.5 hPa SE 3.2 km/h 6.4 km/h 91 % 0 mm
05:31 21.1 °C 19.6 °C 1017.5 hPa SE 3.2 km/h 8 km/h 91 % 0 mm
05:36 21.1 °C 19.6 °C 1017.5 hPa ESE 1.6 km/h 9.7 km/h 91 % 0 mm
05:41 21.1 °C 19.7 °C 1017.8 hPa SE 1.6 km/h 9.7 km/h 92 % 0 mm
05:46 21.1 °C 19.6 °C 1017.8 hPa ESE 4.8 km/h 9.7 km/h 91 % 0 mm
05:51 21.1 °C 19.6 °C 1017.8 hPa ESE 3.2 km/h 9.7 km/h 91 % 0 mm
05:56 21.1 °C 19.7 °C 1017.8 hPa SE 3.2 km/h 9.7 km/h 92 % 0 mm
06:01 21.1 °C 19.7 °C 1017.8 hPa ESE 3.2 km/h 9.7 km/h 92 % 0 mm
06:06 21.2 °C 19.8 °C 1017.8 hPa ESE 4.8 km/h 9.7 km/h 92 % 0 mm
06:16 21.2 °C 19.8 °C 1017.8 hPa ESE 3.2 km/h 6.4 km/h 92 % 0 mm
06:21 21.2 °C 19.8 °C 1017.8 hPa SE 1.6 km/h 6.4 km/h 92 % 0 mm
06:26 21.2 °C 19.8 °C 1017.8 hPa SE 3.2 km/h 6.4 km/h 92 % 0 mm
06:31 21.2 °C 19.8 °C 1017.8 hPa ESE 1.6 km/h 6.4 km/h 92 % 0 mm
06:36 21.2 °C 19.8 °C 1017.8 hPa East 1.6 km/h 6.4 km/h 92 % 0 mm
06:41 21.2 °C 19.8 °C 1017.8 hPa Calm   6.4 km/h 92 % 0 mm
06:46 21.2 °C 19.8 °C 1018.2 hPa Calm   4.8 km/h 92 % 0 mm
06:52 21.2 °C 19.8 °C 1017.8 hPa Calm   3.2 km/h 92 % 0 mm
06:57 21.2 °C 19.8 °C 1018.2 hPa Calm   3.2 km/h 92 % 0 mm
07:02 21.2 °C 19.8 °C 1018.2 hPa Calm   3.2 km/h 92 % 0 mm
07:07 21.2 °C 19.8 °C 1017.8 hPa Calm   3.2 km/h 92 % 0 mm
07:12 21.3 °C 19.9 °C 1017.8 hPa Calm   3.2 km/h 92 % 0 mm
07:17 21.3 °C 19.9 °C 1017.8 hPa North 1.6 km/h 4.8 km/h 92 % 0 mm
07:22 21.3 °C 19.9 °C 1017.8 hPa East 1.6 km/h 4.8 km/h 92 % 0 mm
07:27 21.3 °C 19.9 °C 1017.8 hPa ESE 1.6 km/h 4.8 km/h 92 % 0 mm
07:32 21.3 °C 19.9 °C 1017.8 hPa East 1.6 km/h 4.8 km/h 92 % 0 mm
07:37 21.3 °C 20.1 °C 1018.2 hPa Calm   4.8 km/h 93 % 0 mm
07:42 21.3 °C 20.1 °C 1018.2 hPa NNW 1.6 km/h 4.8 km/h 93 % 0 mm
07:47 21.3 °C 20.1 °C 1018.2 hPa Calm   8 km/h 93 % 0 mm
07:52 21.3 °C 20.1 °C 1018.2 hPa ENE 4.8 km/h 8 km/h 93 % 0 mm
07:57 21.3 °C 20.1 °C 1018.5 hPa NW 1.6 km/h 11.3 km/h 93 % 0 mm
08:02 21.4 °C 20.2 °C 1018.8 hPa NNW 4.8 km/h 11.3 km/h 93 % 0 mm
08:07 21.4 °C 20.2 °C 1018.8 hPa Calm   11.3 km/h 93 % 0 mm
08:12 21.5 °C 20.3 °C 1018.8 hPa ENE 4.8 km/h 6.4 km/h 93 % 0 mm
08:17 21.6 °C 20.4 °C 1018.8 hPa NNW 3.2 km/h 9.7 km/h 93 % 0 mm
08:22 21.6 °C 20.4 °C 1018.8 hPa Calm   9.7 km/h 93 % 0 mm
08:27 21.6 °C 20.4 °C 1018.8 hPa North 3.2 km/h 9.7 km/h 93 % 0 mm
08:32 21.7 °C 20.5 °C 1019.2 hPa NW 3.2 km/h 8 km/h 93 % 0 mm
08:37 21.7 °C 20.5 °C 1019.2 hPa NNW 3.2 km/h 8 km/h 93 % 0 mm
08:42 21.7 °C 20.5 °C 1019.2 hPa Calm   8 km/h 93 % 0 mm
08:47 21.7 °C 20.5 °C 1019.2 hPa ENE 3.2 km/h 8 km/h 93 % 0 mm
08:52 21.7 °C 20.5 °C 1019.2 hPa NNW 1.6 km/h 8 km/h 93 % 0 mm
08:57 21.8 °C 20.6 °C 1019.2 hPa Calm   6.4 km/h 93 % 0 mm
09:02 21.8 °C 20.6 °C 1019.5 hPa ENE 4.8 km/h 11.3 km/h 93 % 0 mm
09:07 21.8 °C 20.6 °C 1019.2 hPa North 4.8 km/h 11.3 km/h 93 % 0 mm
09:12 21.9 °C 20.7 °C 1019.5 hPa ENE 3.2 km/h 11.3 km/h 93 % 0 mm
09:17 21.9 °C 20.7 °C 1019.5 hPa ENE 1.6 km/h 9.7 km/h 93 % 0 mm
09:22 22.1 °C 20.7 °C 1019.5 hPa East 1.6 km/h 9.7 km/h 92 % 0 mm
09:27 22.1 °C 20.7 °C 1019.9 hPa NNW 3.2 km/h 9.7 km/h 92 % 0 mm
09:32 22.2 °C 20.8 °C 1019.9 hPa NNW 3.2 km/h 9.7 km/h 92 % 0 mm
09:37 22.2 °C 20.8 °C 1019.5 hPa North 3.2 km/h 9.7 km/h 92 % 0 mm
09:42 22.3 °C 20.8 °C 1019.9 hPa ENE 9.7 km/h 14.5 km/h 91 % 0 mm
09:47 22.4 °C 20.9 °C 1019.9 hPa ESE 3.2 km/h 14.5 km/h 91 % 0 mm
09:52 22.6 °C 21.1 °C 1019.9 hPa East 3.2 km/h 14.5 km/h 91 % 0 mm
09:57 22.6 °C 20.9 °C 1020.2 hPa North 1.6 km/h 9.7 km/h 90 % 0 mm
10:02 22.7 °C 21 °C 1020.2 hPa NE 1.6 km/h 9.7 km/h 90 % 0 mm
10:07 22.8 °C 21.1 °C 1020.5 hPa Calm   9.7 km/h 90 % 0 mm
10:12 22.8 °C 20.9 °C 1020.5 hPa Calm   9.7 km/h 89 % 0 mm
10:17 22.9 °C 21 °C 1020.2 hPa NNW 4.8 km/h 8 km/h 89 % 0 mm
10:22 22.9 °C 21 °C 1019.9 hPa East 6.4 km/h 8 km/h 89 % 0 mm
10:27 23 °C 21.1 °C 1019.9 hPa East 6.4 km/h 16.1 km/h 89 % 0 mm
10:32 23.2 °C 21.3 °C 1020.2 hPa ESE 4.8 km/h 16.1 km/h 89 % 0 mm
10:37 23.3 °C 21.4 °C 1020.2 hPa ESE 1.6 km/h 16.1 km/h 89 % 0 mm
10:43 23.4 °C 21.3 °C 1020.5 hPa ESE 1.6 km/h 12.9 km/h 88 % 0 mm
10:48 23.4 °C 21.3 °C 1020.5 hPa East 1.6 km/h 14.5 km/h 88 % 0 mm
10:53 23.4 °C 21.1 °C 1020.5 hPa East 1.6 km/h 14.5 km/h 87 % 0 mm
10:58 23.4 °C 21.3 °C 1020.5 hPa ESE 6.4 km/h 14.5 km/h 88 % 0 mm
11:03 23.3 °C 21 °C 1020.5 hPa ESE 3.2 km/h 12.9 km/h 87 % 0 mm
11:08 23.4 °C 21.1 °C 1020.5 hPa Calm   9.7 km/h 87 % 0 mm
11:13 23.4 °C 21.1 °C 1020.5 hPa WNW 3.2 km/h 9.7 km/h 87 % 0 mm
11:18 23.4 °C 21.1 °C 1020.5 hPa NE 4.8 km/h 9.7 km/h 87 % 0 mm
11:23 23.4 °C 20.9 °C 1020.9 hPa East 4.8 km/h 8 km/h 86 % 0 mm
11:28 23.4 °C 20.9 °C 1020.9 hPa Calm   8 km/h 86 % 0 mm
11:33 23.4 °C 20.9 °C 1021.2 hPa NNE 1.6 km/h 8 km/h 86 % 0 mm
11:38 23.4 °C 21.1 °C 1021.2 hPa NW 3.2 km/h 6.4 km/h 87 % 0 mm
11:39 23.4 °C 21.1 °C 1021.6 hPa WNW 3.2 km/h 6.4 km/h 87 % 0 mm
11:44 23.1 °C 21 °C 1021.6 hPa North 8 km/h 9.7 km/h 88 % 0 mm
11:49 22.9 °C 21 °C 1021.6 hPa WNW 4.8 km/h 9.7 km/h 89 % 0 mm
11:54 22.6 °C 20.9 °C 1021.6 hPa NW 3.2 km/h 9.7 km/h 90 % 0 mm
11:59 22.4 °C 20.9 °C 1021.6 hPa NW 4.8 km/h 9.7 km/h 91 % 0 mm
12:04 22.2 °C 20.8 °C 1021.6 hPa NW 6.4 km/h 9.7 km/h 92 % 0 mm
12:09 21.6 °C 19.9 °C 1021.9 hPa NW 20.9 km/h 20.9 km/h 90 % 0 mm
12:14 20 °C 18 °C 1022.2 hPa NW 16.1 km/h 30.6 km/h 88 % 0.25 mm
12:19 19 °C 17.5 °C 1022.6 hPa NNW 3.2 km/h 37 km/h 91 % 0.25 mm
12:24 18.4 °C 17.1 °C 1022.6 hPa NW 6.4 km/h 37 km/h 92 % 1.02 mm
12:34 17.9 °C 16.9 °C 1022.2 hPa NNW 8 km/h 24.1 km/h 94 % 1.78 mm
12:39 17.8 °C 17 °C 1022.2 hPa WNW 3.2 km/h 20.9 km/h 95 % 1.78 mm
12:44 17.7 °C 16.9 °C 1022.6 hPa North 4.8 km/h 20.9 km/h 95 % 6.1 mm
12:49 17.7 °C 17.1 °C 1022.9 hPa Calm   20.9 km/h 96 % 7.87 mm
12:54 17.6 °C 17 °C 1022.6 hPa ENE 1.6 km/h 20.9 km/h 96 % 8.89 mm
12:59 17.4 °C 16.8 °C 1022.6 hPa Calm   20.9 km/h 96 % 10.41 mm
13:04 17.4 °C 16.8 °C 1022.9 hPa Calm   11.3 km/h 96 % 13.72 mm
13:09 17.3 °C 16.7 °C 1022.9 hPa Calm   11.3 km/h 96 % 14.99 mm
13:11 17.3 °C 16.7 °C 1022.9 hPa Calm   11.3 km/h 96 % 16 mm
13:16 17.3 °C 16.8 °C 1022.2 hPa Calm   6.4 km/h 97 % 16.51 mm
13:21 17.3 °C 16.8 °C 1021.9 hPa SE 1.6 km/h 6.4 km/h 97 % 16.51 mm
13:26 17.4 °C 16.9 °C 1021.6 hPa East 4.8 km/h 6.4 km/h 97 % 17.27 mm
13:31 17.4 °C 16.9 °C 1021.6 hPa ESE 8 km/h 11.3 km/h 97 % 17.27 mm
13:36 17.4 °C 16.9 °C 1021.2 hPa Calm   12.9 km/h 97 % 17.27 mm
13:42 17.4 °C 16.9 °C 1021.2 hPa East 1.6 km/h 12.9 km/h 97 % 12.7 mm
13:47 17.4 °C 16.9 °C 1020.9 hPa Calm   17.7 km/h 97 % 11.18 mm
13:52 17.4 °C 16.9 °C 1020.9 hPa East 3.2 km/h 17.7 km/h 97 % 10.16 mm
13:57 17.5 °C 17.2 °C 1020.9 hPa ENE 4.8 km/h 17.7 km/h 98 % 8.89 mm
14:02 17.6 °C 17.3 °C 1021.2 hPa ESE 16.1 km/h 16.1 km/h 98 % 5.59 mm
14:07 17.7 °C 17.4 °C 1021.9 hPa East 8 km/h 16.1 km/h 98 % 4.32 mm
14:12 17.7 °C 17.4 °C 1022.2 hPa SE 4.8 km/h 16.1 km/h 98 % 3.05 mm
14:17 17.7 °C 17.4 °C 1021.9 hPa SSE 8 km/h 16.1 km/h 98 % 2.54 mm
14:22 17.7 °C 17.4 °C 1021.9 hPa SSW 4.8 km/h 12.9 km/h 98 % 1.52 mm
14:27 17.7 °C 17.4 °C 1021.9 hPa ESE 6.4 km/h 12.9 km/h 98 % 0.76 mm
14:32 17.7 °C 17.4 °C 1021.9 hPa SSW 4.8 km/h 9.7 km/h 98 % 0.76 mm
14:34 17.7 °C 17.2 °C 1021.9 hPa Calm   9.7 km/h 97 % 0.76 mm
14:39 17.6 °C 17.1 °C 1021.9 hPa Calm   9.7 km/h 97 % 1.02 mm
14:44 17.6 °C 17.3 °C 1021.6 hPa Calm   9.7 km/h 98 % 1.02 mm
14:49 17.6 °C 17.3 °C 1021.6 hPa ENE 4.8 km/h 8 km/h 98 % 1.02 mm
14:54 17.6 °C 17.3 °C 1021.2 hPa East 1.6 km/h 6.4 km/h 98 % 1.52 mm
14:59 17.6 °C 17.3 °C 1020.9 hPa East 3.2 km/h 6.4 km/h 98 % 1.52 mm
15:04 17.6 °C 17.3 °C 1020.5 hPa Calm   6.4 km/h 98 % 2.03 mm
15:09 17.6 °C 17.3 °C 1020.5 hPa SSE 1.6 km/h 6.4 km/h 98 % 2.79 mm
15:14 17.6 °C 17.3 °C 1020.9 hPa SSE 1.6 km/h 6.4 km/h 98 % 3.56 mm
15:19 17.6 °C 17.3 °C 1020.9 hPa SE 1.6 km/h 4.8 km/h 98 % 4.06 mm
15:24 17.6 °C 17.3 °C 1020.9 hPa SE 3.2 km/h 6.4 km/h 98 % 4.57 mm
15:29 17.7 °C 17.4 °C 1021.2 hPa SSE 1.6 km/h 8 km/h 98 % 4.83 mm
15:34 17.7 °C 17.4 °C 1020.9 hPa Calm   8 km/h 98 % 5.08 mm
15:39 17.7 °C 17.4 °C 1020.9 hPa SE 1.6 km/h 8 km/h 98 % 5.08 mm
15:44 17.6 °C 17.3 °C 1020.5 hPa SE 6.4 km/h 8 km/h 98 % 5.59 mm
15:49 17.6 °C 17.3 °C 1020.2 hPa ESE 6.4 km/h 9.7 km/h 98 % 5.84 mm
15:54 17.7 °C 17.4 °C 1020.2 hPa SSE 8 km/h 9.7 km/h 98 % 5.84 mm
15:59 17.7 °C 17.4 °C 1020.2 hPa SSE 8 km/h 11.3 km/h 98 % 6.1 mm
16:04 17.7 °C 17.4 °C 1019.9 hPa SE 8 km/h 11.3 km/h 98 % 5.59 mm
16:09 17.7 °C 17.4 °C 1019.9 hPa SE 11.3 km/h 16.1 km/h 98 % 5.33 mm
16:14 17.7 °C 17.4 °C 1019.9 hPa SE 11.3 km/h 17.7 km/h 98 % 5.08 mm
16:19 17.7 °C 17.4 °C 1019.9 hPa ESE 12.9 km/h 17.7 km/h 98 % 4.83 mm
16:24 17.6 °C 17.3 °C 1019.2 hPa SE 11.3 km/h 17.7 km/h 98 % 4.57 mm
16:29 17.6 °C 17.3 °C 1018.8 hPa South 11.3 km/h 19.3 km/h 98 % 4.57 mm
16:30 17.6 °C 17.3 °C 1018.8 hPa SE 8 km/h 19.3 km/h 98 % 4.57 mm
16:35 17.5 °C 17.2 °C 1019.9 hPa SSE 17.7 km/h 19.3 km/h 98 % 4.57 mm
16:40 17.4 °C 17.1 °C 1020.2 hPa South 3.2 km/h 19.3 km/h 98 % 4.57 mm
16:45 17.4 °C 17.1 °C 1019.9 hPa SW 8 km/h 17.7 km/h 98 % 4.57 mm
16:50 17.4 °C 17.1 °C 1019.9 hPa SSE 6.4 km/h 17.7 km/h 98 % 3.81 mm
16:55 17.4 °C 17.1 °C 1019.9 hPa SE 4.8 km/h 12.9 km/h 98 % 3.81 mm
17:00 17.4 °C 17.1 °C 1019.5 hPa East 4.8 km/h 14.5 km/h 98 % 3.05 mm
17:05 17.4 °C 17.1 °C 1019.5 hPa South 8 km/h 14.5 km/h 98 % 2.54 mm
17:10 17.4 °C 17.1 °C 1019.5 hPa ESE 9.7 km/h 14.5 km/h 98 % 2.29 mm
17:15 17.4 °C 17.1 °C 1019.5 hPa SE 6.4 km/h 16.1 km/h 98 % 2.03 mm
17:20 17.4 °C 17.1 °C 1019.2 hPa SE 4.8 km/h 16.1 km/h 98 % 1.78 mm
17:25 17.4 °C 16.9 °C 1019.2 hPa SE 3.2 km/h 16.1 km/h 97 % 1.27 mm
17:30 17.4 °C 16.9 °C 1019.2 hPa East 1.6 km/h 11.3 km/h 97 % 0.76 mm
17:35 17.5 °C 17 °C 1018.8 hPa East 3.2 km/h 11.3 km/h 97 % 0.25 mm
17:40 17.5 °C 17 °C 1018.8 hPa ENE 1.6 km/h 8 km/h 97 % 0 mm
17:45 17.5 °C 17 °C 1018.5 hPa SE 1.6 km/h 8 km/h 97 % 0 mm
17:50 17.5 °C 17 °C 1018.8 hPa NNE 1.6 km/h 8 km/h 97 % 0 mm
17:55 17.6 °C 17.1 °C 1019.2 hPa NNW 3.2 km/h 8 km/h 97 % 0 mm
18:00 17.7 °C 17.2 °C 1019.2 hPa NNW 3.2 km/h 8 km/h 97 % 0 mm
18:05 17.7 °C 17.2 °C 1018.8 hPa NNW 1.6 km/h 8 km/h 97 % 0 mm
18:10 17.7 °C 17.2 °C 1018.8 hPa NE 1.6 km/h 8 km/h 97 % 0 mm
18:15 17.7 °C 17.2 °C 1018.8 hPa North 3.2 km/h 11.3 km/h 97 % 0 mm
18:20 17.8 °C 17.3 °C 1018.5 hPa NE 3.2 km/h 11.3 km/h 97 % 0 mm
18:25 17.7 °C 17.2 °C 1018.5 hPa Calm   16.1 km/h 97 % 0 mm
18:30 17.7 °C 17.2 °C 1018.5 hPa NE 4.8 km/h 16.1 km/h 97 % 0 mm
18:35 17.7 °C 17.2 °C 1018.5 hPa Calm   16.1 km/h 97 % 0 mm
18:40 17.7 °C 17.2 °C 1018.8 hPa SE 1.6 km/h 11.3 km/h 97 % 0 mm
18:45 17.7 °C 17.2 °C 1018.8 hPa NNW 4.8 km/h 11.3 km/h 97 % 0 mm
18:50 17.7 °C 17.2 °C 1019.2 hPa NE 6.4 km/h 11.3 km/h 97 % 0 mm
18:55 17.7 °C 17.2 °C 1019.2 hPa ENE 1.6 km/h 11.3 km/h 97 % 0 mm
19:00 17.7 °C 17.2 °C 1019.5 hPa ENE 9.7 km/h 11.3 km/h 97 % 0 mm
19:05 17.7 °C 17.2 °C 1019.5 hPa NW 3.2 km/h 11.3 km/h 97 % 0 mm
19:10 17.6 °C 17.1 °C 1019.5 hPa West 1.6 km/h 11.3 km/h 97 % 0 mm
19:15 17.6 °C 17.1 °C 1019.5 hPa ENE 4.8 km/h 11.3 km/h 97 % 0 mm
19:20 17.6 °C 17.1 °C 1019.5 hPa Calm   11.3 km/h 97 % 0 mm
19:25 17.6 °C 17.1 °C 1019.5 hPa Calm   8 km/h 97 % 0 mm
19:30 17.6 °C 17.1 °C 1019.5 hPa Calm   8 km/h 97 % 0 mm
19:35 17.6 °C 17.1 °C 1019.5 hPa Calm   8 km/h 97 % 0 mm
19:40 17.6 °C 17.1 °C 1019.5 hPa North 1.6 km/h 8 km/h 97 % 0 mm
19:45 17.6 °C 17.1 °C 1019.5 hPa NW 3.2 km/h 8 km/h 97 % 0 mm
19:50 17.6 °C 17.1 °C 1019.5 hPa Calm   8 km/h 97 % 0 mm
19:55 17.5 °C 17 °C 1019.5 hPa NE 6.4 km/h 11.3 km/h 97 % 0 mm
20:00 17.5 °C 17 °C 1019.9 hPa Calm   11.3 km/h 97 % 0 mm
20:05 17.4 °C 16.9 °C 1019.9 hPa Calm   11.3 km/h 97 % 0 mm
20:10 17.4 °C 16.9 °C 1019.9 hPa Calm   11.3 km/h 97 % 0 mm
20:15 17.4 °C 16.9 °C 1019.9 hPa NE 1.6 km/h 8 km/h 97 % 0 mm
20:20 17.4 °C 16.9 °C 1019.9 hPa Calm   8 km/h 97 % 0 mm
20:25 17.5 °C 17 °C 1019.9 hPa Calm   8 km/h 97 % 0 mm
20:31 17.5 °C 17 °C 1019.9 hPa Calm   8 km/h 97 % 0 mm
20:36 17.5 °C 17 °C 1019.9 hPa ESE 1.6 km/h 8 km/h 97 % 0 mm
20:41 17.5 °C 17 °C 1020.2 hPa Calm   8 km/h 97 % 0 mm
20:46 17.5 °C 17 °C 1020.2 hPa Calm   6.4 km/h 97 % 0 mm
20:51 17.5 °C 17 °C 1020.2 hPa Calm   4.8 km/h 97 % 0 mm
20:53 17.5 °C 17 °C 1020.2 hPa Calm   4.8 km/h 97 % 0 mm
20:58 17.5 °C 17 °C 1020.2 hPa East 1.6 km/h 4.8 km/h 97 % 0 mm
21:03 17.5 °C 17 °C 1020.5 hPa Calm   1.6 km/h 97 % 0 mm
21:08 17.5 °C 17 °C 1020.5 hPa Calm   1.6 km/h 97 % 0 mm
21:13 17.5 °C 17 °C 1020.5 hPa Calm   1.6 km/h 97 % 0 mm
21:18 17.5 °C 17 °C 1020.9 hPa Calm   3.2 km/h 97 % 0 mm
21:23 17.6 °C 17.1 °C 1020.9 hPa Calm   3.2 km/h 97 % 0 mm
21:28 17.6 °C 17.1 °C 1020.9 hPa SSE 1.6 km/h 3.2 km/h 97 % 0 mm
21:33 17.6 °C 17.1 °C 1020.9 hPa SE 3.2 km/h 3.2 km/h 97 % 0 mm
21:38 17.6 °C 17.1 °C 1020.9 hPa SE 1.6 km/h 3.2 km/h 97 % 0 mm
21:43 17.6 °C 17.1 °C 1020.5 hPa Calm   3.2 km/h 97 % 0 mm
21:48 17.5 °C 17 °C 1020.9 hPa Calm   3.2 km/h 97 % 0 mm
21:53 17.4 °C 16.9 °C 1020.9 hPa Calm   1.6 km/h 97 % 0 mm
21:55 17.4 °C 16.9 °C 1020.9 hPa Calm   1.6 km/h 97 % 0 mm
22:00 17.3 °C 16.8 °C 1020.9 hPa Calm   1.6 km/h 97 % 0 mm
22:05 17.1 °C 16.6 °C 1020.9 hPa Calm   1.6 km/h 97 % 0 mm
22:10 17.2 °C 16.7 °C 1020.9 hPa Calm   1.6 km/h 97 % 0 mm
22:15 17.1 °C 16.6 °C 1020.9 hPa Calm   1.6 km/h 97 % 0 mm
22:20 16.9 °C 16.4 °C 1020.9 hPa Calm   1.6 km/h 97 % 0 mm
22:25 16.8 °C 16.3 °C 1021.2 hPa Calm     97 % 0 mm
22:30 16.8 °C 16.3 °C 1021.2 hPa Calm     97 % 0 mm
22:35 16.7 °C 16.2 °C 1021.2 hPa Calm     97 % 0 mm
22:40 16.7 °C 16.2 °C 1021.2 hPa Calm   1.6 km/h 97 % 0 mm
22:45 16.6 °C 16.1 °C 1021.2 hPa Calm   1.6 km/h 97 % 0 mm
22:50 16.5 °C 16 °C 1021.2 hPa Calm   1.6 km/h 97 % 0 mm
22:55 16.4 °C 16.1 °C 1020.9 hPa Calm   1.6 km/h 98 % 0 mm
23:00 16.4 °C 15.9 °C 1020.9 hPa Calm   1.6 km/h 97 % 0 mm
23:05 16.3 °C 16 °C 1020.9 hPa Calm   1.6 km/h 98 % 0 mm
23:10 16.3 °C 16 °C 1020.9 hPa Calm     98 % 0 mm
23:15 16.3 °C 16 °C 1020.9 hPa Calm     98 % 0 mm
23:20 16.3 °C 16 °C 1020.9 hPa Calm   1.6 km/h 98 % 0 mm
23:25 16.2 °C 15.9 °C 1020.9 hPa Calm   1.6 km/h 98 % 0 mm
23:30 16.1 °C 15.8 °C 1020.9 hPa Calm   1.6 km/h 98 % 0 mm
23:35 16.1 °C 15.8 °C 1020.9 hPa Calm   1.6 km/h 98 % 0 mm
23:40 16.1 °C 15.8 °C 1020.5 hPa Calm   1.6 km/h 98 % 0 mm
23:45 16.1 °C 15.8 °C 1020.5 hPa NW 1.6 km/h 1.6 km/h 98 % 0 mm
23:50 16.1 °C 15.8 °C 1020.5 hPa Calm   1.6 km/h 98 % 0 mm
23:55 16.1 °C 15.8 °C 1020.5 hPa Calm   1.6 km/h 98 % 0 mm
Spring, Texas: Villages of Bridgestone
Compliments of Weather Underground - 2.75 mb

Script developed by  Jim McMurry - jmcmurry@mwt.net Adapted for the template by  Wim van der Kuil - Leuven-Template.eu

You find our weather info also at:

UK Metoffice

WeatherCloud

Weather Underground

Mid-South Weather Network

AWEKAS

Citizen Weather Observer Program (CWOP)

HAMweather, WeatherForYou, PWS Weather

Equipment we use:

Weather-station
Davis Vantage Vue

Weather-program
Meteohub

Weather-server
Debian 7.9 x86 (Guest)

Provider
DreamHost

Davis Vantage Vue

Meteohub

Debian 7.9 x86 (Guest)

DreamHost